Location: *
(46.4000°N, 12.6667°E)
Time: 03:28:22
(UTC+00:00)

Envisat - Pass Details

Date: 03 December 2021
Orbit: 764 x 766 km, 98.2° (Epoch: 16 January)

Event Time Altitude Azimuth Distance (km) Brightness Sun altitude
Rises 15:45:27 0° 183° (S) 3,219 6.7 -4.1°
Reaches altitude 10° 15:47:51 10° 190° (S) 2,298 6.1 -4.5°
Maximum altitude 15:52:40 44° 262° (W) 1,057 4.4 -5.2°
Drops below altitude 10° 15:57:32 10° 334° (NNW) 2,314 5.5 -5.9°
Sets 15:59:58 0° 341° (NNW) 3,245 6.2 -6.3°
